When you browse on this site, cookies collect data to enhance your experience and personalize the content and advertising you see.
Visit our Privacy Policy to learn more. By continuing to use the site, you agree to this use of cookies and data.

Previsão horária em Petrikovo

Hoje, 5 Julho, Domingo

Tempo Temperatura Precipitação Vento Pressão Humidade
00:00 +15°C° 0 mm 1 m/s 739 mmHg 86%
01:00 +14°C° 0 mm 1 m/s 739 mmHg 86%
02:00 +14°C° 0 mm 1 m/s 739 mmHg 86%
03:00 +15°C° 0 mm 1 m/s 739 mmHg 84%
04:00 +15°C° 0 mm 1 m/s 739 mmHg 82%
05:00 +16°C° 0 mm 2 m/s 739 mmHg 79%
06:00 +18°C° 0 mm 2 m/s 739 mmHg 72%
07:00 +20°C° 0 mm 3 m/s 739 mmHg 64%
08:00 +22°C° 0 mm 4 m/s 738 mmHg 57%
09:00 +23°C° 0 mm 4 m/s 738 mmHg 53%
10:00 +25°C° 0 mm 4 m/s 738 mmHg 50%
11:00 +26°C° 0 mm 4 m/s 738 mmHg 47%
12:00 +26°C° 0 mm 4 m/s 738 mmHg 46%
13:00 +27°C° 0 mm 4 m/s 737 mmHg 46%
14:00 +27°C° 0 mm 4 m/s 737 mmHg 46%
15:00 +26°C° 0.2 mm 4 m/s 737 mmHg 56%
16:00 +24°C° 0.2 mm 3 m/s 737 mmHg 65%
17:00 +22°C° 0.2 mm 3 m/s 736 mmHg 74%
18:00 +21°C° 0.1 mm 3 m/s 736 mmHg 79%
19:00 +20°C° 0.1 mm 2 m/s 736 mmHg 85%
20:00 +19°C° 0.1 mm 2 m/s 736 mmHg 90%
21:00 +19°C° 0 mm 2 m/s 736 mmHg 92%
22:00 +18°C° 0 mm 3 m/s 736 mmHg 94%
23:00 +18°C° 0 mm 3 m/s 736 mmHg 96%

Amanhã, 6 Julho, Segunda-feira

Tempo Temperatura Precipitação Vento Pressão Humidade
00:00 +18°C° 0 mm 3 m/s 736 mmHg 95%
01:00 +18°C° 0 mm 3 m/s 735 mmHg 95%
02:00 +18°C° 0 mm 3 m/s 735 mmHg 94%
03:00 +18°C° 0 mm 4 m/s 735 mmHg 94%
04:00 +18°C° 0 mm 4 m/s 735 mmHg 93%
05:00 +19°C° 0 mm 4 m/s 735 mmHg 92%
06:00 +19°C° 0 mm 4 m/s 735 mmHg 88%
07:00 +20°C° 0 mm 4 m/s 735 mmHg 85%
08:00 +20°C° 0 mm 4 m/s 735 mmHg 82%
09:00 +21°C° 0.1 mm 4 m/s 735 mmHg 80%
10:00 +22°C° 0.1 mm 4 m/s 735 mmHg 78%
11:00 +23°C° 0.1 mm 5 m/s 736 mmHg 76%
12:00 +23°C° 0.3 mm 4 m/s 735 mmHg 76%
13:00 +23°C° 0.3 mm 4 m/s 735 mmHg 76%
14:00 +25°C° 0.3 mm 4 m/s 735 mmHg 76%
15:00 +25°C° 0.2 mm 3 m/s 735 mmHg 74%
16:00 +25°C° 0.2 mm 3 m/s 735 mmHg 72%
17:00 +25°C° 0.2 mm 3 m/s 735 mmHg 70%
18:00 +24°C° 0.1 mm 2 m/s 736 mmHg 76%
19:00 +23°C° 0.1 mm 2 m/s 736 mmHg 83%
20:00 +21°C° 0.1 mm 1 m/s 736 mmHg 89%
21:00 +21°C° 0 mm 1 m/s 736 mmHg 90%
22:00 +20°C° 0 mm 1 m/s 736 mmHg 92%
23:00 +20°C° 0 mm 1 m/s 736 mmHg 93%

Depois de amanhã, 7 Julho, Terça-feira

Tempo Temperatura Precipitação Vento Pressão Humidade
00:00 +19°C° 0.1 mm 1 m/s 736 mmHg 94%
01:00 +17°C° 0.1 mm 0 m/s 736 mmHg 94%
02:00 +17°C° 0.1 mm 0 m/s 736 mmHg 95%
03:00 +17°C° 0.2 mm 0 m/s 736 mmHg 95%
04:00 +17°C° 0.2 mm 0 m/s 736 mmHg 96%
05:00 +17°C° 0.2 mm 0 m/s 736 mmHg 97%
06:00 +19°C° 0.6 mm 1 m/s 736 mmHg 97%
07:00 +19°C° 0.6 mm 1 m/s 736 mmHg 97%
08:00 +19°C° 0.6 mm 1 m/s 736 mmHg 98%
09:00 +18°C° 2.7 mm 2 m/s 736 mmHg 97%
10:00 +17°C° 2.7 mm 2 m/s 736 mmHg 97%
11:00 +17°C° 2.7 mm 3 m/s 736 mmHg 97%
12:00 +18°C° 0.1 mm 2 m/s 736 mmHg 93%
13:00 +18°C° 0.1 mm 2 m/s 736 mmHg 89%
14:00 +19°C° 0.1 mm 2 m/s 736 mmHg 85%
15:00 +18°C° 0 mm 2 m/s 737 mmHg 86%
16:00 +19°C° 0 mm 1 m/s 737 mmHg 87%
17:00 +18°C° 0 mm 1 m/s 737 mmHg 88%
18:00 +18°C° 0 mm 1 m/s 737 mmHg 89%
19:00 +16°C° 0 mm 1 m/s 737 mmHg 91%
20:00 +15°C° 0 mm 1 m/s 737 mmHg 92%
21:00 +15°C° 0 mm 1 m/s 737 mmHg 90%
22:00 +14°C° 0 mm 1 m/s 738 mmHg 89%
23:00 +13°C° 0 mm 1 m/s 738 mmHg 88%

8 Julho, Quarta-feira

Tempo Temperatura Precipitação Vento Pressão Humidade
00:00 +13°C° 0 mm 1 m/s 738 mmHg 87%
01:00 +13°C° 0 mm 1 m/s 738 mmHg 87%
02:00 +13°C° 0 mm 1 m/s 738 mmHg 87%
03:00 +14°C° 0 mm 1 m/s 738 mmHg 85%
04:00 +14°C° 0 mm 1 m/s 738 mmHg 84%
05:00 +15°C° 0 mm 1 m/s 739 mmHg 83%
06:00 +14°C° 0 mm 0 m/s 739 mmHg 82%
07:00 +15°C° 0 mm 0 m/s 738 mmHg 80%
08:00 +15°C° 0 mm 0 m/s 738 mmHg 79%
09:00 +16°C° 0.1 mm 0 m/s 738 mmHg 79%
10:00 +18°C° 0.1 mm 1 m/s 738 mmHg 79%
11:00 +18°C° 0.1 mm 1 m/s 739 mmHg 79%
12:00 +19°C° 0.1 mm 1 m/s 738 mmHg 76%
13:00 +19°C° 0.1 mm 1 m/s 738 mmHg 74%
14:00 +19°C° 0.1 mm 2 m/s 738 mmHg 71%
15:00 +19°C° 0 mm 2 m/s 738 mmHg 69%
16:00 +20°C° 0 mm 2 m/s 738 mmHg 67%
17:00 +20°C° 0 mm 2 m/s 738 mmHg 66%
18:00 +19°C° 0 mm 2 m/s 738 mmHg 73%
19:00 +18°C° 0 mm 1 m/s 738 mmHg 79%
20:00 +16°C° 0 mm 1 m/s 738 mmHg 86%
21:00 +15°C° 0 mm 1 m/s 738 mmHg 88%
22:00 +14°C° 0 mm 1 m/s 738 mmHg 89%
23:00 +13°C° 0 mm 1 m/s 738 mmHg 91%

9 Julho, Quinta-feira

Tempo Temperatura Precipitação Vento Pressão Humidade
00:00 +13°C° 0 mm 1 m/s 738 mmHg 90%
01:00 +13°C° 0 mm 1 m/s 738 mmHg 89%
02:00 +12°C° 0 mm 1 m/s 738 mmHg 89%
03:00 +13°C° 0 mm 2 m/s 738 mmHg 86%
04:00 +13°C° 0 mm 2 m/s 738 mmHg 84%
05:00 +14°C° 0 mm 2 m/s 738 mmHg 81%
06:00 +15°C° 0 mm 2 m/s 739 mmHg 76%
07:00 +16°C° 0 mm 2 m/s 739 mmHg 71%
08:00 +17°C° 0 mm 2 m/s 739 mmHg 65%
09:00 +18°C° 0 mm 3 m/s 739 mmHg 60%
10:00 +19°C° 0 mm 3 m/s 739 mmHg 55%
11:00 +20°C° 0 mm 3 m/s 739 mmHg 50%
12:00 +21°C° 0 mm 3 m/s 739 mmHg 47%
13:00 +21°C° 0 mm 4 m/s 739 mmHg 43%
14:00 +22°C° 0 mm 4 m/s 739 mmHg 39%
15:00 +22°C° 0 mm 4 m/s 739 mmHg 41%
16:00 +21°C° 0 mm 4 m/s 739 mmHg 43%
17:00 +21°C° 0 mm 4 m/s 740 mmHg 46%
18:00 +19°C° 0 mm 3 m/s 740 mmHg 57%
19:00 +17°C° 0 mm 2 m/s 740 mmHg 67%
20:00 +15°C° 0 mm 2 m/s 740 mmHg 78%
21:00 +14°C° 0 mm 2 m/s 741 mmHg 83%
22:00 +13°C° 0 mm 2 m/s 741 mmHg 89%
23:00 +12°C° 0 mm 1 m/s 741 mmHg 94%

10 Julho, Sexta-feira

Tempo Temperatura Precipitação Vento Pressão Humidade
00:00 +11°C° 0 mm 1 m/s 741 mmHg 95%
01:00 +11°C° 0 mm 1 m/s 742 mmHg 96%
02:00 +10°C° 0 mm 1 m/s 742 mmHg 96%
03:00 +11°C° 0 mm 1 m/s 742 mmHg 94%
04:00 +11°C° 0 mm 1 m/s 743 mmHg 91%
05:00 +12°C° 0 mm 1 m/s 743 mmHg 89%
06:00 +14°C° 0 mm 1 m/s 743 mmHg 78%
07:00 +16°C° 0 mm 1 m/s 743 mmHg 68%
08:00 +20°C° 0 mm 1 m/s 743 mmHg 58%
09:00 +21°C° 0 mm 1 m/s 743 mmHg 52%
10:00 +21°C° 0 mm 2 m/s 743 mmHg 47%
11:00 +23°C° 0 mm 2 m/s 743 mmHg 41%
12:00 +23°C° 0 mm 2 m/s 743 mmHg 42%
13:00 +23°C° 0 mm 2 m/s 743 mmHg 43%
14:00 +22°C° 0 mm 3 m/s 743 mmHg 43%
15:00 +23°C° 0 mm 2 m/s 743 mmHg 45%
16:00 +23°C° 0 mm 2 m/s 743 mmHg 46%
17:00 +23°C° 0 mm 2 m/s 743 mmHg 47%
18:00 +20°C° 0 mm 2 m/s 743 mmHg 55%
19:00 +20°C° 0 mm 1 m/s 743 mmHg 62%
20:00 +18°C° 0 mm 1 m/s 743 mmHg 70%
21:00 +16°C° 0 mm 1 m/s 743 mmHg 72%
22:00 +15°C° 0 mm 1 m/s 743 mmHg 74%
23:00 +14°C° 0 mm 2 m/s 743 mmHg 75%
Mostrar mais